Weather History for Tetuan, Morocco

Change the Weather History Date:

Wednesday, November 28, 2012

  Actual Average Record
Temperature  
Mean Temperature 55 °F -  
Max Temperature 60 °F 61 °F 73 °F (1998)
Min Temperature 50 °F 50 °F 46 °F (1998)
Degree Days  
Heating Degree Days 10    
Growing Degree Days 5 (Base 50)    
Moisture  
Dew Point 43 °F    
Average Humidity 64    
Maximum Humidity 82    
Minimum Humidity 35    
Precipitation  
Precipitation 0.00 in - - ()
Sea Level Pressure  
Sea Level Pressure 29.92 in    
Wind  
Wind Speed 12 mph ()    
Max Wind Speed 23 mph    
Max Gust Speed -    
Visibility 3.2 miles    
Events      
Averages and records for this station are not official NWS values.
T = Trace of Precipitation, MM = Missing Value Source: Averaged Metar Reports

Daily Weather History Graph

Daily Weather History Graph

Search for Another Location

Airport:

Trip Planner

Search our weather history database for the weather conditions in past years. The results will help you decide how hot, cold, wet, or windy it might be!

Date:

Astronomy

Nov. 28, 2012 Rise Set
Actual Time 7:09 AM WET 5:08 PM WET
Civil Twilight 6:42 AM WET 5:36 PM WET
Nautical Twilight 6:10 AM WET 6:07 PM WET
Astronomical Twilight 5:39 AM WET 6:38 PM WET
Moon 5:13 PM WET (11/28) 6:55 AM WET (11/28)
Length of Visible Light 10h 54m
Length of Day
9h 58m
Full, 100% of the Moon is Illuminated
Nov 28
Full
Nov 28
Full
Dec 6
Last Quarter
Dec 13
New
Dec 20
First Quarter

Hourly Weather History & Observations

Time (WET) Temp. Dew Point Humidity Pressure Visibility Wind Dir Wind Speed Gust Speed Precip Events Conditions
12:00 AM 52 °F 42 °F 61% 29.91 in 1 mi West 17.3 mph - -  
12:00 AM 51.8 °F 42.8 °F 71% 29.89 in 1.3 mi West 17.3 mph - N/A   Unknown
1:00 AM 53.6 °F 44.6 °F 72% 29.89 in 1.5 mi West 13.8 mph - N/A   Unknown
2:00 AM 51.8 °F 46.4 °F 82% 29.86 in 1.5 mi NNW 6.9 mph - N/A   Unknown
3:00 AM 52 °F 47 °F 76% 29.88 in 1 mi WNW 5.8 mph - -  
3:00 AM 51.8 °F 46.4 °F 82% 29.86 in 1.5 mi WNW 5.8 mph - N/A   Unknown
4:00 AM 51.8 °F 46.4 °F 82% 29.86 in 1.5 mi WNW 8.1 mph - N/A   Unknown
5:00 AM 53.6 °F 46.4 °F 77% 29.86 in 1.5 mi WNW 10.4 mph - N/A   Unknown
6:00 AM 52 °F 44 °F 64% 29.88 in 6 mi WNW 12.7 mph - -   Mostly Cloudy
6:00 AM 51.8 °F 42.8 °F 71% 29.86 in 1.6 mi WNW 16.1 mph - N/A   Unknown
7:00 AM 51.8 °F 42.8 °F 71% 29.89 in 1.6 mi West 9.2 mph - N/A   Unknown
8:00 AM 51.8 °F 42.8 °F 71% 29.92 in 6.2 mi West 11.5 mph - N/A   Scattered Clouds
9:00 AM 54 °F 44 °F 58% 29.94 in 6 mi WNW 10.4 mph - -   Partly Cloudy
9:00 AM 53.6 °F 42.8 °F 67% 29.92 in 6.2 mi WNW 10.4 mph - N/A   Scattered Clouds
1:00 PM 60.8 °F 39.2 °F 45% 29.92 in 6.2 mi West 16.1 mph - N/A   Partly Cloudy
2:00 PM 59.0 °F 37.4 °F 45% 29.92 in 6.2 mi West 16.1 mph - N/A   Partly Cloudy
3:00 PM 59 °F 38 °F 35% 29.94 in 6 mi West 17.3 mph - -   Scattered Clouds
6:00 PM 54 °F 41 °F 51% 29.96 in 9 mi West 17.3 mph - -  
6:00 PM 53.6 °F 41.0 °F 62% 29.95 in - West 12.7 mph - N/A   Clear
7:00 PM 53.6 °F 41.0 °F 62% 29.95 in - West 19.6 mph - N/A   Clear
8:00 PM 53.6 °F 41.0 °F 62% 29.98 in - West 23.0 mph - N/A   Clear
9:00 PM 54 °F 41 °F 50% 30.00 in 1 mi West 18.4 mph - -  
9:00 PM 53.6 °F 41.0 °F 62% 29.98 in 1.5 mi West 18.4 mph - N/A   Unknown
10:00 PM 53.6 °F 41.0 °F 62% 29.98 in 1.5 mi West 18.4 mph - N/A   Unknown
11:00 PM 55.4 °F 41.0 °F 58% 29.98 in 1.5 mi West 12.7 mph - N/A   Unknown